Location: Chuathbaluk
(61.5726°N, 159.2454°W)
Time: 23:29:48
(UTC+00:00)

Explorer 7 - Pass Details

Date: 12 December 2021
Orbit: 483 x 674 km, 50.3° (Epoch: 21 January)

Event Time Altitude Azimuth Distance (km) Brightness Sun altitude
Exits shadow 17:02:48 11° 228° (SW) 1,787 9.1 -16.5°
Maximum altitude 17:04:59 16° 195° (SSW) 1,507 9.1 -16.3°
Drops below altitude 10° 17:07:30 10° 157° (SSE) 1,808 10.0 -16.0°
Sets 17:10:21 0° 135° (SE) 2,657 11.5 -15.7°
